NKS1445 KDFW-KBNA

Flight info

Callsign NKS1445
Flight time 1h 23m
Altitude 37000
Route TRYTN4 LOOSE WASKO Q34 MEMFS CHSNE3
Aircraft A21N/M-SDE2E3FGHIRWXY/LB1

Departure

Time 2026-05-03 23:55
Airport Dallas Fort Worth International Airport (KDFW)

Arrival

Time 2026-05-04 01:18
Airport Nashville International Airport (KBNA)
Time Latitude Longitude Altitude Speed Heading
2026-05-03 23:28 32.89745 -97.03490 601 ft 0 kts 272°
2026-05-03 23:43 32.89745 -97.03489 601 ft 1 kts 272°
2026-05-03 23:43 32.89744 -97.03467 601 ft 3 kts 274°
2026-05-03 23:43 32.89742 -97.03443 601 ft 3 kts 281°
2026-05-03 23:43 32.89737 -97.03421 601 ft 3 kts 300°
2026-05-03 23:44 32.89730 -97.03409 601 ft 0 kts 332°
2026-05-03 23:46 32.89735 -97.03409 601 ft 1 kts
2026-05-03 23:47 32.89746 -97.03397 601 ft 4 kts 55°
2026-05-03 23:47 32.89753 -97.03339 601 ft 11 kts 91°
2026-05-03 23:47 32.89755 -97.03244 601 ft 11 kts 74°
2026-05-03 23:47 32.89816 -97.03195 601 ft 11 kts
2026-05-03 23:48 32.89894 -97.03194 601 ft 11 kts
2026-05-03 23:48 32.89974 -97.03193 601 ft 12 kts
2026-05-03 23:48 32.90056 -97.03192 601 ft 12 kts
2026-05-03 23:48 32.90140 -97.03192 601 ft 12 kts
2026-05-03 23:49 32.90226 -97.03191 601 ft 12 kts 359°
2026-05-03 23:49 32.90313 -97.03192 601 ft 13 kts 360°
2026-05-03 23:49 32.90401 -97.03192 601 ft 13 kts 360°
2026-05-03 23:49 32.90491 -97.03191 601 ft 13 kts 360°
2026-05-03 23:50 32.90581 -97.03191 601 ft 13 kts
2026-05-03 23:50 32.90671 -97.03190 601 ft 13 kts
2026-05-03 23:50 32.90764 -97.03190 601 ft 13 kts
2026-05-03 23:50 32.90858 -97.03189 601 ft 14 kts
2026-05-03 23:51 32.90954 -97.03189 601 ft 14 kts
2026-05-03 23:51 32.91051 -97.03187 601 ft 14 kts
2026-05-03 23:51 32.91148 -97.03186 601 ft 14 kts
2026-05-03 23:51 32.91248 -97.03186 601 ft 14 kts 359°
2026-05-03 23:52 32.91348 -97.03186 601 ft 15 kts 359°
2026-05-03 23:52 32.91450 -97.03186 601 ft 15 kts
2026-05-03 23:52 32.91542 -97.03170 601 ft 5 kts 38°
2026-05-03 23:52 32.91556 -97.03132 601 ft 5 kts 84°
2026-05-03 23:53 32.91558 -97.03090 601 ft 5 kts 88°
2026-05-03 23:53 32.91558 -97.03041 601 ft 7 kts 91°
2026-05-03 23:53 32.91534 -97.02994 601 ft 7 kts 154°
2026-05-03 23:53 32.91489 -97.02990 601 ft 6 kts 180°
2026-05-03 23:54 32.91394 -97.02991 601 ft 34 kts 180°
2026-05-03 23:54 32.90956 -97.02994 601 ft 90 kts 180°
2026-05-03 23:54 32.90127 -97.03000 602 ft 147 kts 180°
2026-05-03 23:54 32.89003 -97.02979 752 ft 170 kts 180°
2026-05-03 23:55 32.87820 -97.03012 1262 ft 171 kts 183°
2026-05-03 23:55 32.86634 -97.03020 1799 ft 171 kts 177°
2026-05-03 23:55 32.85479 -97.02724 2308 ft 175 kts 164°
2026-05-03 23:55 32.84275 -97.02167 2592 ft 190 kts 162°
2026-05-03 23:56 32.82976 -97.01627 2908 ft 212 kts 163°
2026-05-03 23:56 32.81488 -97.00987 3230 ft 238 kts 161°
2026-05-03 23:56 32.79916 -97.00248 3927 ft 247 kts 157°
2026-05-03 23:56 32.78464 -96.99072 4708 ft 259 kts 136°
2026-05-03 23:57 32.77501 -96.97221 5543 ft 268 kts 117°
2026-05-03 23:57 32.76817 -96.95129 6342 ft 276 kts 110°
2026-05-03 23:57 32.76511 -96.92843 7122 ft 285 kts 94°
2026-05-03 23:57 32.76549 -96.90480 7993 ft 289 kts 89°
2026-05-03 23:58 32.76653 -96.88072 8822 ft 294 kts 89°
2026-05-03 23:58 32.76759 -96.85632 9737 ft 297 kts 88°
2026-05-03 23:58 32.76943 -96.83188 10497 ft 304 kts 81°
2026-05-03 23:58 32.77470 -96.80651 10847 ft 327 kts 74°
2026-05-03 23:59 32.78162 -96.77996 11183 ft 347 kts 73°
2026-05-03 23:59 32.78917 -96.75172 11484 ft 367 kts 73°
2026-05-03 23:59 32.79688 -96.72257 12035 ft 375 kts 73°
2026-05-03 23:59 32.80472 -96.69273 12637 ft 383 kts 73°
2026-05-04 00:00 32.81267 -96.66224 13306 ft 387 kts 73°
2026-05-04 00:00 32.82067 -96.63145 14011 ft 393 kts 73°
2026-05-04 00:00 32.82871 -96.60035 14641 ft 396 kts 72°
2026-05-04 00:00 32.83682 -96.56889 15278 ft 400 kts 72°
2026-05-04 00:01 32.84499 -96.53719 15938 ft 402 kts 72°
2026-05-04 00:01 32.85321 -96.50523 16601 ft 405 kts 71°
2026-05-04 00:01 32.86146 -96.47310 17224 ft 408 kts 71°
2026-05-04 00:01 32.86979 -96.44065 17856 ft 410 kts 71°
2026-05-04 00:02 32.87807 -96.40838 18439 ft 414 kts 71°
2026-05-04 00:02 32.88651 -96.37544 18898 ft 419 kts 71°
2026-05-04 00:02 32.89510 -96.34203 19345 ft 423 kts 70°
2026-05-04 00:02 32.90500 -96.30898 19807 ft 426 kts 66°
2026-05-04 00:03 32.91575 -96.27583 20294 ft 430 kts 66°
2026-05-04 00:03 32.92667 -96.24246 20744 ft 434 kts 65°
2026-05-04 00:03 32.93764 -96.20889 21186 ft 438 kts 65°
2026-05-04 00:03 32.94869 -96.17494 21630 ft 442 kts 65°
2026-05-04 00:04 32.95985 -96.14054 22052 ft 446 kts 65°
2026-05-04 00:04 32.97107 -96.10589 22478 ft 450 kts 65°
2026-05-04 00:04 32.98236 -96.07097 22915 ft 453 kts 65°
2026-05-04 00:04 32.99368 -96.03589 23359 ft 455 kts 65°
2026-05-04 00:05 33.00505 -96.00063 23725 ft 459 kts 65°
2026-05-04 00:05 33.01654 -95.96495 24049 ft 462 kts 65°
2026-05-04 00:05 33.02811 -95.92898 24417 ft 465 kts 65°
2026-05-04 00:05 33.03969 -95.89292 24758 ft 468 kts 65°
2026-05-04 00:06 33.05137 -95.85653 25106 ft 471 kts 64°
2026-05-04 00:06 33.06312 -95.81993 25431 ft 474 kts 64°
2026-05-04 00:06 33.07494 -95.78312 25746 ft 478 kts 64°
2026-05-04 00:06 33.08672 -95.74642 26060 ft 481 kts 64°
2026-05-04 00:07 33.09864 -95.70923 26385 ft 483 kts 64°
2026-05-04 00:07 33.11070 -95.67157 26748 ft 485 kts 64°
2026-05-04 00:07 33.12275 -95.63388 27049 ft 487 kts 64°
2026-05-04 00:07 33.13485 -95.59600 27360 ft 491 kts 64°
2026-05-04 00:08 33.14705 -95.55776 27633 ft 493 kts 64°
2026-05-04 00:08 33.15926 -95.51945 27884 ft 496 kts 64°
2026-05-04 00:08 33.17154 -95.48086 28194 ft 496 kts 64°
2026-05-04 00:08 33.18380 -95.44224 28562 ft 496 kts 64°
2026-05-04 00:09 33.19600 -95.40380 28904 ft 496 kts 64°
2026-05-04 00:09 33.20824 -95.36517 29268 ft 497 kts 63°
2026-05-04 00:09 33.22029 -95.32712 29627 ft 497 kts 64°
2026-05-04 00:09 33.23248 -95.28855 30091 ft 495 kts 63°
2026-05-04 00:10 33.24463 -95.25005 30409 ft 494 kts 63°
2026-05-04 00:10 33.25677 -95.21158 30708 ft 495 kts 63°
2026-05-04 00:10 33.26887 -95.17319 31001 ft 495 kts 63°
2026-05-04 00:10 33.28100 -95.13464 31304 ft 495 kts 63°
2026-05-04 00:11 33.29310 -95.09611 31588 ft 495 kts 63°
2026-05-04 00:11 33.30519 -95.05760 31874 ft 495 kts 62°
2026-05-04 00:11 33.31727 -95.01907 32145 ft 495 kts 62°
2026-05-04 00:11 33.32939 -94.98034 32415 ft 495 kts 62°
2026-05-04 00:12 33.34145 -94.94180 32711 ft 495 kts 62°
2026-05-04 00:12 33.35339 -94.90350 33103 ft 491 kts 62°
2026-05-04 00:12 33.36532 -94.86523 33407 ft 490 kts 62°
2026-05-04 00:12 33.37718 -94.82716 33609 ft 490 kts 62°
2026-05-04 00:13 33.38894 -94.78937 33839 ft 490 kts 62°
2026-05-04 00:13 33.40088 -94.75097 34051 ft 491 kts 62°
2026-05-04 00:13 33.41276 -94.71271 34238 ft 491 kts 62°
2026-05-04 00:13 33.42469 -94.67422 34426 ft 491 kts 62°
2026-05-04 00:14 33.43655 -94.63590 34588 ft 491 kts 62°
2026-05-04 00:14 33.44840 -94.59756 34766 ft 491 kts 62°
2026-05-04 00:14 33.46011 -94.55963 34948 ft 491 kts 62°
2026-05-04 00:14 33.47190 -94.52137 35218 ft 488 kts 62°
2026-05-04 00:15 33.48364 -94.48324 35394 ft 488 kts 62°
2026-05-04 00:15 33.49541 -94.44499 35524 ft 489 kts 62°
2026-05-04 00:15 33.50720 -94.40665 35652 ft 489 kts 62°
2026-05-04 00:15 33.51896 -94.36831 35811 ft 489 kts 62°
2026-05-04 00:16 33.53063 -94.33024 35934 ft 489 kts 62°
2026-05-04 00:16 33.54239 -94.29180 36076 ft 490 kts 62°
2026-05-04 00:16 33.55411 -94.25328 36207 ft 490 kts 62°
2026-05-04 00:16 33.56553 -94.21517 36333 ft 491 kts 62°
2026-05-04 00:17 33.57698 -94.17678 36509 ft 490 kts 62°
2026-05-04 00:17 33.58844 -94.13829 36732 ft 488 kts 62°
2026-05-04 00:17 33.59984 -94.09994 36870 ft 488 kts 62°
2026-05-04 00:17 33.61126 -94.06153 36959 ft 488 kts 62°
2026-05-04 00:18 33.63416 -93.98441 37061 ft 491 kts 63°
2026-05-04 00:18 33.65713 -93.90685 37057 ft 497 kts 63°
2026-05-04 00:19 33.68026 -93.82853 37055 ft 502 kts 63°
2026-05-04 00:19 33.70366 -93.74907 37055 ft 507 kts 64°
2026-05-04 00:20 33.72644 -93.67136 37055 ft 506 kts 64°
2026-05-04 00:20 33.74979 -93.59157 37048 ft 506 kts 64°
2026-05-04 00:21 33.77301 -93.51206 37048 ft 506 kts 64°
2026-05-04 00:21 33.79622 -93.43233 37054 ft 506 kts 64°
2026-05-04 00:22 33.81950 -93.35218 37055 ft 506 kts 64°
2026-05-04 00:22 33.84266 -93.27220 37052 ft 506 kts 64°
2026-05-04 00:23 33.86571 -93.19240 37053 ft 506 kts 64°
2026-05-04 00:23 33.88498 -93.12550 37054 ft 506 kts 64°
2026-05-04 00:24 33.91031 -93.04704 37071 ft 502 kts 59°
2026-05-04 00:24 33.93867 -92.97034 37052 ft 499 kts 59°
2026-05-04 00:25 33.96717 -92.89486 37055 ft 498 kts 59°
2026-05-04 00:25 33.99572 -92.81857 37051 ft 499 kts 59°
2026-05-04 00:26 34.02402 -92.74220 37049 ft 499 kts 59°
2026-05-04 00:26 34.05217 -92.66587 37069 ft 499 kts 59°
2026-05-04 00:27 34.08053 -92.58936 37053 ft 498 kts 59°
2026-05-04 00:27 34.10896 -92.51325 37046 ft 497 kts 59°
2026-05-04 00:28 34.13737 -92.43703 37049 ft 497 kts 59°
2026-05-04 00:28 34.16547 -92.36140 37050 ft 498 kts 59°
2026-05-04 00:29 34.19374 -92.28506 37077 ft 498 kts 59°
2026-05-04 00:29 34.22198 -92.20857 37049 ft 496 kts 59°
2026-05-04 00:30 34.25003 -92.13243 37053 ft 496 kts 59°
2026-05-04 00:30 34.27805 -92.05623 37054 ft 496 kts 59°
2026-05-04 00:31 34.30584 -91.98046 37053 ft 496 kts 59°
2026-05-04 00:31 34.33378 -91.90412 37072 ft 496 kts 60°
2026-05-04 00:32 34.36164 -91.82782 37056 ft 495 kts 60°
2026-05-04 00:32 34.38935 -91.75173 37056 ft 495 kts 60°
2026-05-04 00:33 34.43097 -91.63713 37061 ft 495 kts 60°
2026-05-04 00:34 34.45867 -91.56063 37054 ft 495 kts 60°
2026-05-04 00:34 34.48612 -91.48464 37056 ft 494 kts 60°
2026-05-04 00:35 34.51357 -91.40846 37054 ft 494 kts 60°
2026-05-04 00:35 34.54113 -91.33180 37058 ft 494 kts 60°
2026-05-04 00:36 34.56850 -91.25549 37061 ft 494 kts 60°
2026-05-04 00:36 34.59589 -91.17893 37060 ft 494 kts 60°
2026-05-04 00:37 34.62318 -91.10247 37061 ft 493 kts 60°
2026-05-04 00:37 34.65028 -91.02635 37058 ft 493 kts 60°
2026-05-04 00:38 34.67748 -90.94979 37058 ft 492 kts 60°
2026-05-04 00:38 34.70466 -90.87309 37059 ft 493 kts 60°
2026-05-04 00:39 34.73172 -90.79655 37055 ft 493 kts 60°
2026-05-04 00:39 34.75874 -90.71991 37067 ft 493 kts 60°
2026-05-04 00:40 34.78116 -90.65619 37060 ft 492 kts 60°
2026-05-04 00:40 34.81238 -90.56723 37057 ft 492 kts 60°
2026-05-04 00:41 34.83927 -90.49044 37054 ft 492 kts 60°
2026-05-04 00:41 34.86600 -90.41388 37053 ft 492 kts 60°
2026-05-04 00:42 34.89282 -90.33689 37054 ft 492 kts 60°
2026-05-04 00:42 34.91943 -90.26031 37042 ft 491 kts 61°
2026-05-04 00:43 34.94594 -90.18386 37054 ft 491 kts 61°
2026-05-04 00:43 34.97250 -90.10704 37052 ft 491 kts 61°
2026-05-04 00:44 34.99903 -90.03015 37073 ft 492 kts 61°
2026-05-04 00:44 35.02533 -89.95319 37065 ft 492 kts 62°
2026-05-04 00:45 35.05113 -89.87636 37064 ft 492 kts 62°
2026-05-04 00:45 35.07698 -89.79918 37063 ft 492 kts 62°
2026-05-04 00:46 35.10290 -89.72163 37063 ft 492 kts 62°
2026-05-04 00:46 35.12863 -89.64448 37063 ft 492 kts 62°
2026-05-04 00:47 35.15452 -89.56665 37059 ft 492 kts 62°
2026-05-04 00:47 35.18017 -89.48935 37054 ft 492 kts 62°
2026-05-04 00:48 35.20591 -89.41158 37054 ft 492 kts 62°
2026-05-04 00:48 35.23153 -89.33395 37054 ft 492 kts 62°
2026-05-04 00:49 35.25697 -89.25669 37064 ft 492 kts 62°
2026-05-04 00:49 35.28249 -89.17899 37062 ft 492 kts 62°
2026-05-04 00:50 35.30798 -89.10116 37063 ft 492 kts 62°
2026-05-04 00:50 35.33337 -89.02345 37067 ft 492 kts 62°
2026-05-04 00:51 35.35860 -88.94602 37066 ft 492 kts 62°
2026-05-04 00:51 35.38395 -88.86804 37074 ft 492 kts 62°
2026-05-04 00:52 35.40850 -88.79231 37074 ft 492 kts 62°
2026-05-04 00:52 35.42102 -88.75355 36841 ft 482 kts 62°
2026-05-04 00:52 35.43319 -88.71578 36498 ft 474 kts 62°
2026-05-04 00:52 35.44529 -88.67826 36203 ft 471 kts 62°
2026-05-04 00:53 35.45733 -88.64097 35957 ft 471 kts 62°
2026-05-04 00:53 35.46943 -88.60344 35701 ft 471 kts 62°
2026-05-04 00:53 35.48139 -88.56627 35455 ft 471 kts 62°
2026-05-04 00:53 35.49340 -88.52890 34921 ft 470 kts 62°
2026-05-04 00:54 35.50541 -88.49144 34201 ft 472 kts 62°
2026-05-04 00:54 35.51745 -88.45390 33360 ft 474 kts 62°
2026-05-04 00:54 35.52955 -88.41612 32534 ft 476 kts 62°
2026-05-04 00:54 35.54166 -88.37824 31737 ft 477 kts 62°
2026-05-04 00:55 35.55367 -88.34061 30933 ft 479 kts 63°
2026-05-04 00:55 35.56585 -88.30241 30074 ft 481 kts 63°
2026-05-04 00:55 35.57807 -88.26401 29112 ft 483 kts 63°
2026-05-04 00:55 35.59028 -88.22557 28262 ft 483 kts 63°
2026-05-04 00:56 35.60231 -88.18758 27695 ft 476 kts 64°
2026-05-04 00:56 35.61430 -88.14969 27070 ft 470 kts 64°
2026-05-04 00:56 35.62608 -88.11250 26463 ft 466 kts 64°
2026-05-04 00:56 35.63784 -88.07538 25847 ft 462 kts 64°
2026-05-04 00:57 35.64946 -88.03867 25209 ft 458 kts 64°
2026-05-04 00:57 35.66098 -88.00224 24575 ft 455 kts 64°
2026-05-04 00:57 35.67240 -87.96606 23931 ft 453 kts 64°
2026-05-04 00:57 35.68377 -87.93003 23222 ft 451 kts 65°
2026-05-04 00:58 35.69505 -87.89423 22548 ft 446 kts 65°
2026-05-04 00:58 35.70614 -87.85894 21939 ft 441 kts 65°
2026-05-04 00:58 35.71714 -87.82390 21311 ft 436 kts 65°
2026-05-04 00:58 35.72801 -87.78927 20690 ft 431 kts 65°
2026-05-04 00:59 35.73864 -87.75530 20397 ft 418 kts 65°
2026-05-04 00:59 35.74888 -87.72251 20223 ft 403 kts 65°
2026-05-04 00:59 35.75884 -87.69062 19774 ft 397 kts 65°
2026-05-04 00:59 35.76857 -87.65951 19272 ft 393 kts 65°
2026-05-04 01:00 35.77846 -87.62775 18829 ft 387 kts 65°
2026-05-04 01:00 35.78789 -87.59742 18500 ft 382 kts 65°
2026-05-04 01:00 35.79741 -87.56679 18137 ft 381 kts 65°
2026-05-04 01:00 35.80688 -87.53633 17755 ft 379 kts 65°
2026-05-04 01:01 35.81621 -87.50626 17379 ft 377 kts 65°
2026-05-04 01:01 35.82565 -87.47625 17049 ft 374 kts 64°
2026-05-04 01:01 35.83569 -87.44697 16729 ft 371 kts 63°
2026-05-04 01:01 35.84596 -87.41782 16397 ft 369 kts 63°
2026-05-04 01:02 35.85619 -87.38884 16075 ft 367 kts 63°
2026-05-04 01:02 35.86635 -87.36005 15748 ft 365 kts 63°
2026-05-04 01:02 35.87645 -87.33136 15423 ft 363 kts 63°
2026-05-04 01:02 35.88646 -87.30288 15108 ft 361 kts 63°
2026-05-04 01:03 35.89632 -87.27479 14793 ft 359 kts 63°
2026-05-04 01:03 35.90621 -87.24658 14474 ft 357 kts 63°
2026-05-04 01:03 35.91602 -87.21856 14159 ft 356 kts 63°
2026-05-04 01:03 35.92575 -87.19073 13836 ft 354 kts 63°
2026-05-04 01:04 35.93552 -87.16279 13500 ft 351 kts 63°
2026-05-04 01:04 35.94189 -87.14454 13291 ft 350 kts 63°
2026-05-04 01:04 35.95480 -87.10755 12879 ft 348 kts 63°
2026-05-04 01:04 35.96433 -87.08022 12566 ft 347 kts 63°
2026-05-04 01:05 35.97371 -87.05329 12292 ft 341 kts 63°
2026-05-04 01:05 35.98287 -87.02688 12080 ft 329 kts 63°
2026-05-04 01:05 35.99179 -87.00117 11800 ft 319 kts 63°
2026-05-04 01:05 36.00038 -86.97640 11509 ft 311 kts 63°
2026-05-04 01:06 36.00878 -86.95221 11228 ft 303 kts 63°
2026-05-04 01:06 36.01699 -86.92855 10953 ft 295 kts 63°
2026-05-04 01:06 36.02499 -86.90547 10701 ft 287 kts 63°
2026-05-04 01:06 36.03266 -86.88331 10449 ft 281 kts 63°
2026-05-04 01:07 36.04022 -86.86146 10219 ft 273 kts 63°
2026-05-04 01:07 36.04769 -86.84052 10092 ft 258 kts 59°
2026-05-04 01:07 36.05780 -86.82314 9745 ft 245 kts 38°
2026-05-04 01:07 36.07205 -86.81219 9256 ft 238 kts 18°
2026-05-04 01:08 36.08759 -86.80543 8794 ft 236 kts 13°
2026-05-04 01:08 36.10328 -86.79948 8334 ft 236 kts 13°
2026-05-04 01:08 36.11899 -86.79357 7882 ft 234 kts 13°
2026-05-04 01:08 36.13453 -86.78765 7378 ft 234 kts 13°
2026-05-04 01:09 36.15009 -86.78168 6861 ft 234 kts 13°
2026-05-04 01:09 36.16569 -86.77585 6342 ft 234 kts 13°
2026-05-04 01:09 36.18129 -86.77011 5820 ft 234 kts 12°
2026-05-04 01:09 36.19690 -86.76436 5289 ft 234 kts 12°
2026-05-04 01:10 36.21244 -86.75864 4800 ft 234 kts 12°
2026-05-04 01:10 36.22809 -86.75289 4266 ft 235 kts 13°
2026-05-04 01:10 36.24381 -86.74711 3763 ft 235 kts 13°
2026-05-04 01:10 36.25948 -86.74134 3289 ft 234 kts 14°
2026-05-04 01:11 36.27504 -86.73559 3012 ft 234 kts 14°
2026-05-04 01:11 36.29043 -86.72992 2972 ft 234 kts 14°
2026-05-04 01:11 36.30100 -86.72601 2971 ft 234 kts 14°
2026-05-04 01:11 36.32163 -86.71815 2969 ft 235 kts 19°
2026-05-04 01:12 36.33475 -86.70621 2971 ft 236 kts 53°
2026-05-04 01:12 36.33973 -86.69437 2988 ft 235 kts 75°
2026-05-04 01:12 36.34020 -86.67460 3003 ft 229 kts 105°
2026-05-04 01:12 36.33536 -86.65587 2991 ft 227 kts 115°
2026-05-04 01:13 36.32742 -86.63937 3001 ft 220 kts 141°
2026-05-04 01:13 36.31452 -86.63041 2701 ft 212 kts 168°
2026-05-04 01:13 36.30008 -86.62687 2518 ft 211 kts 175°
2026-05-04 01:13 36.28568 -86.62458 2487 ft 200 kts 180°
2026-05-04 01:14 36.27264 -86.62577 2489 ft 177 kts 195°
2026-05-04 01:14 36.26123 -86.62979 2511 ft 172 kts 200°
2026-05-04 01:14 36.24981 -86.63439 2501 ft 173 kts 200°
2026-05-04 01:14 36.23829 -86.63901 2499 ft 173 kts 200°
2026-05-04 01:15 36.22682 -86.64355 2453 ft 174 kts 200°
2026-05-04 01:15 36.21528 -86.64807 2238 ft 171 kts 200°
2026-05-04 01:15 36.20451 -86.65231 1997 ft 154 kts 200°
2026-05-04 01:15 36.19488 -86.65612 1769 ft 138 kts 200°
2026-05-04 01:16 36.18616 -86.65956 1617 ft 131 kts 200°
2026-05-04 01:16 36.17731 -86.66304 1427 ft 132 kts 199°
2026-05-04 01:16 36.16863 -86.66651 1257 ft 134 kts 200°
2026-05-04 01:16 36.15957 -86.66988 1092 ft 135 kts 197°
2026-05-04 01:17 36.15071 -86.67351 921 ft 134 kts 202°
2026-05-04 01:17 36.14168 -86.67704 723 ft 136 kts 197°
2026-05-04 01:17 36.13293 -86.68057 581 ft 124 kts 198°
2026-05-04 01:17 36.12622 -86.68314 584 ft 75 kts 197°
2026-05-04 01:18 36.12294 -86.68438 587 ft 24 kts 179°
2026-05-04 01:18 36.12215 -86.68392 590 ft 11 kts 152°
2026-05-04 01:18 36.12166 -86.68351 589 ft 1 kts 119°
2026-05-04 01:18 36.12165 -86.68351 589 ft 0 kts 119°
2026-05-04 01:20 36.12163 -86.68345 589 ft 4 kts 116°
2026-05-04 01:20 36.12218 -86.68268 587 ft 21 kts 17°
2026-05-04 01:20 36.12331 -86.68226 579 ft 16 kts 16°
2026-05-04 01:20 36.12445 -86.68184 578 ft 17 kts 16°
2026-05-04 01:21 36.12530 -86.68154 576 ft 12 kts 16°
2026-05-04 01:21 36.12614 -86.68124 579 ft 12 kts 15°
2026-05-04 01:21 36.12692 -86.68096 583 ft 11 kts 16°
2026-05-04 01:21 36.12760 -86.68072 580 ft 10 kts 16°
2026-05-04 01:22 36.12834 -86.68045 580 ft 12 kts 18°
2026-05-04 01:22 36.12921 -86.68010 581 ft 14 kts 18°
2026-05-04 01:22 36.13022 -86.67970 579 ft 15 kts 18°
2026-05-04 01:22 36.13064 -86.67888 580 ft 13 kts 118°
2026-05-04 01:23 36.13001 -86.67802 579 ft 14 kts 133°
2026-05-04 01:23 36.12926 -86.67704 578 ft 16 kts 133°
2026-05-04 01:23 36.12850 -86.67604 577 ft 16 kts 133°
2026-05-04 01:23 36.12779 -86.67513 575 ft 5 kts 133°
2026-05-04 01:24 36.12779 -86.67512 575 ft 0 kts 133°
2026-05-04 01:25 36.12776 -86.67508 576 ft 3 kts 133°
2026-05-04 01:25 36.12745 -86.67462 580 ft 10 kts 117°
2026-05-04 01:25 36.12762 -86.67380 573 ft 11 kts 53°
2026-05-04 01:25 36.12824 -86.67307 578 ft 13 kts 43°
2026-05-04 01:26 36.12849 -86.67276 571 ft 6 kts 46°
2026-05-04 01:26 36.12879 -86.67217 573 ft 8 kts 74°
2026-05-04 01:26 36.12890 -86.67181 579 ft 4 kts 79°
2026-05-04 01:26 36.12892 -86.67164 577 ft 0 kts 85°
2026-05-04 01:27 36.12892 -86.67160 578 ft 2 kts 84°
2026-05-04 01:27 36.12893 -86.67150 576 ft 0 kts 83°
2026-05-04 01:28 36.12892 -86.67151 576 ft 0 kts 82°